[[{"header":{"parameterUnit":"m.s-1","parameterCategory":1,"la1":30.2991,"la2":30.254,"lo1":-89.0895,"lo2":-89.0444,"dy":0.0017,"dx":0.0017,"nx":28,"ny":28,"refTime":"2024-05-07T09:00:00:Z","depth":0,"parameterNumber":2,"parameterNumberName":"U-component_of_WINDS"},"data":[0,0,0,0,0,0,0,0,0,0,0,0,0,0,0,0,0,0,0,0,0,0,0,0,0,0,0,0,0,0,0,0,0,0,0,0,0,0,0,0,0,0,0,0,0,0,0,0,0,0,0,0,0,0,0,0,0,0,-2.6264,-2.6264,0,-2.6236,-2.6236,-2.6235,-2.6199,-2.6199,-2.6198,-2.6198,-2.6167,-2.6167,-2.6167,0,0,0,0,0,0,0,0,0,0,0,0,0,-2.6286,-2.6286,-2.6264,-2.6264,-2.6263,-2.6236,-2.6236,-2.6235,-2.6199,-2.6199,-2.6198,-2.6197,-2.6167,-2.6167,-2.6167,0,0,0,0,0,0,0,0,0,0,0,0,0,-2.6269,-2.6286,-2.6264,-2.6242,-2.624,-2.6236,-2.6236,-2.6235,-2.62,-2.6199,-2.6198,-2.6197,-2.6167,-2.6167,-2.6167,-2.6181,0,0,-2.6165,-2.6165,0,0,0,0,0,0,0,0,-2.627,-2.6269,-2.6246,-2.6244,-2.6241,-2.622,-2.6232,-2.6217,-2.62,-2.6215,-2.6198,-2.6197,-2.6185,-2.6183,-2.618,-2.618,-2.6179,-2.6165,-2.6165,-2.6165,-2.6165,0,0,0,0,0,0,0,-2.6272,-2.627,-2.6253,-2.6246,-2.6243,-2.6234,-2.623,-2.6229,-2.6205,-2.6213,-2.6211,-2.6208,-2.6184,-2.6181,-2.6179,-2.6178,-2.6165,-2.6165,-2.6165,-2.6164,-2.6189,-2.619,0,0,0,0,0,0,-2.6276,-2.6271,-2.6254,-2.6252,-2.6254,-2.6234,-2.623,-2.6228,-2.6205,-2.6201,-2.6209,-2.6206,-2.6182,-2.618,-2.6178,-2.6193,-2.6165,-2.6164,-2.6164,-2.6188,-2.6189,-2.619,0,0,0,0,0,0,-2.6277,-2.6275,-2.6255,-2.6261,-2.6258,-2.6235,-2.6232,-2.6228,-2.6224,-2.6202,-2.6197,-2.621,-2.6181,-2.6178,-2.6181,-2.6192,-2.6164,-2.6164,-2.6187,-2.6189,-2.619,-2.6224,0,0,0,0,0,0,-2.6278,-2.6275,-2.6281,-2.6261,-2.6257,-2.6259,-2.6233,-2.6228,-2.6224,-2.6221,-2.6201,-2.6197,-2.618,-2.6182,-2.6181,-2.6191,-2.6164,-2.6186,-2.6188,-2.619,-2.6222,-2.6227,-2.6231,0,0,0,0,0,-2.6278,-2.6291,-2.6281,-2.6279,-2.6264,-2.6259,-2.6257,-2.6237,-2.6225,-2.623,-2.6216,-2.6198,-2.6191,-2.6182,-2.6181,-2.6191,-2.6185,-2.6187,-2.6189,-2.622,-2.6226,-2.6231,0,0,0,0,0,0,-2.6312,-2.6288,-2.6277,-2.6284,-2.6274,-2.6253,-2.6259,-2.6244,-2.6237,-2.6234,-2.621,-2.6206,-2.6211,-2.6202,-2.6192,-2.6204,-2.6186,-2.6188,-2.621,-2.6215,-2.6219,-2.622,-2.6163,0,0,0,0,0,-2.632,-2.6319,-2.6298,-2.6306,-2.6302,-2.6282,-2.6279,-2.6265,-2.6254,-2.6249,-2.6235,-2.6225,-2.622,-2.6217,-2.6212,-2.6222,-2.6217,-2.6228,-2.6232,-2.6236,-2.6237,-2.6241,-2.6246,-2.6197,-2.6197,-2.6197,0,0,-2.6337,-2.6324,-2.6324,-2.6313,-2.6304,-2.6303,-2.6278,-2.6278,-2.6277,-2.6249,-2.625,-2.624,-2.6227,-2.6233,-2.6235,-2.6225,-2.625,-2.6239,-2.6242,-2.624,-2.6244,-2.6248,-2.6252,-2.6199,-2.6198,-2.6198,0,0,-2.6366,-2.6357,-2.6362,-2.6354,-2.6341,-2.6327,-2.6329,-2.6311,-2.6303,-2.6305,-2.6284,-2.6282,-2.6275,-2.6266,-2.6261,-2.629,-2.6273,-2.6289,-2.631,-2.6314,-2.6318,-2.6321,-2.633,-2.6334,-2.6291,-2.6291,-2.6291,0,-2.6388,-2.6386,-2.6367,-2.6368,-2.6364,-2.634,-2.6345,-2.6338,-2.6323,-2.6321,-2.631,-2.6302,-2.6291,-2.6294,-2.6302,-2.6299,-2.6299,-2.6289,-2.6319,-2.6322,-2.6325,-2.6333,-2.6337,-2.6293,-2.6292,-2.6292,-2.6292,0,-2.6413,-2.6413,-2.6419,-2.6406,-2.6402,-2.6406,-2.6387,-2.6386,-2.6373,-2.6361,-2.6363,-2.635,-2.6341,-2.6342,-2.6329,-2.6343,-2.6338,-2.6324,-2.6304,-2.6332,-2.6339,-2.6342,-2.6295,-2.6295,-2.6294,-2.6294,0,0,-2.646,-2.6439,-2.6441,-2.6435,-2.642,-2.6418,-2.6421,-2.6414,-2.6412,-2.6404,-2.6405,-2.6401,-2.6389,-2.6383,-2.6369,-2.6373,-2.6396,-2.6359,-2.6358,-2.6364,-2.641,-2.6419,-2.6423,-2.6386,-2.6386,-2.6387,-2.6411,0,-2.6486,-2.6488,-2.6472,-2.6479,-2.6478,-2.6456,-2.6459,-2.645,-2.6439,-2.6436,-2.6424,-2.6421,-2.6406,-2.6402,-2.6405,-2.6392,-2.6404,-2.639,-2.6385,-2.6385,-2.6387,-2.6427,-2.6436,-2.6459,-2.6414,-2.6414,-2.6414,0,-2.6515,-2.6508,-2.6515,-2.65,-2.6499,-2.6501,-2.6493,-2.6492,-2.6481,-2.6473,-2.6468,-2.6452,-2.6454,-2.6438,-2.6439,-2.643,-2.6428,-2.6421,-2.6422,-2.6418,-2.64,-2.6423,-2.6466,-2.6469,-2.6419,-2.6419,-2.6418,0,-2.6546,-2.654,-2.6543,-2.6539,-2.6522,-2.6524,-2.6517,-2.6506,-2.6503,-2.6496,-2.6494,-2.6488,-2.6484,-2.6479,-2.6463,-2.6453,-2.6466,-2.6448,-2.6458,-2.6459,-2.646,-2.6459,-2.6501,-2.6462,-2.6462,-2.6462,-2.6462,0,-2.6575,-2.658,-2.6557,-2.6559,-2.6564,-2.6546,-2.6551,-2.6542,-2.6533,-2.6532,-2.6514,-2.6514,-2.6494,-2.6491,-2.6479,-2.6481,-2.648,-2.6473,-2.6469,-2.6473,-2.6474,-2.6469,-2.6467,-2.6463,-2.6462,-2.6462,-2.6462,0,-2.661,-2.6595,-2.6597,-2.6582,-2.6578,-2.6582,-2.6568,-2.6569,-2.6559,-2.6558,-2.6557,-2.654,-2.6537,-2.6521,-2.6513,-2.6505,-2.6511,-2.6505,-2.6514,-2.6512,-2.6522,-2.652,-2.656,-2.6564,-2.6524,-2.6525,-2.6525,0,-2.6628,-2.6631,-2.6616,-2.6615,-2.6609,-2.6607,-2.6604,-2.6587,-2.6584,-2.6573,-2.6576,-2.6571,-2.6566,-2.6562,-2.6548,-2.6542,-2.6535,-2.655,-2.6534,-2.6538,-2.6533,-2.6532,-2.6532,-2.6552,-2.6552,-2.6553,-2.6553,0,-2.6661,-2.6654,-2.665,-2.6645,-2.6642,-2.6636,-2.6629,-2.6629,-2.661,-2.6609,-2.6605,-2.6602,-2.6595,-2.659,-2.6583,-2.6575,-2.6561,-2.6559,-2.6561,-2.6564,-2.6568,-2.6564,-2.6521,-2.6557,-2.6557,-2.6557,-2.6556,-2.6556,-2.6687,-2.6689,-2.6679,-2.6675,-2.6669,-2.6663,-2.6663,-2.6653,-2.665,-2.6643,-2.6634,-2.6631,-2.6622,-2.661,-2.6604,-2.6602,-2.6594,-2.6597,-2.6597,-2.6598,-2.6599,-2.6571,-2.6601,-2.6601,-2.6601,-2.6601,-2.6601,0,-2.6718,-2.6711,-2.6708,-2.67,-2.6697,-2.6686,-2.6678,-2.6676,-2.6675,-2.6667,-2.6663,-2.6659,-2.6655,-2.6642,-2.6637,-2.6637,-2.6631,-2.6636,-2.6635,-2.6633,-2.6608,-2.6606,-2.6642,-2.6642,-2.6642,-2.6642,-2.6642,-2.6642,-2.6734,-2.6736,-2.6728,-2.6727,-2.672,-2.6717,-2.6714,-2.6709,-2.6703,-2.6699,-2.6696,-2.6688,-2.6678,-2.6672,-2.6668,-2.6664,-2.6662,-2.6669,-2.6664,-2.6639,-2.6635,-2.6631,-2.6629,-2.667,-2.667,-2.6689,-2.6689,-2.6689]},{"header":{"parameterUnit":"m.s-1","parameterCategory":1,"la1":30.2991,"la2":30.254,"lo1":-89.0895,"lo2":-89.0444,"dy":0.0017,"dx":0.0017,"nx":28,"ny":28,"refTime":"2024-05-07T09:00:00:Z","depth":0,"parameterNumber":3,"parameterNumberName":"V-component_of_WINDS"},"data":[0,0,0,0,0,0,0,0,0,0,0,0,0,0,0,0,0,0,0,0,0,0,0,0,0,0,0,0,0,0,0,0,0,0,0,0,0,0,0,0,0,0,0,0,0,0,0,0,0,0,0,0,0,0,0,0,0,0,5.8434,5.8435,0,5.8503,5.8503,5.8504,5.8492,5.8491,5.849,5.8489,5.8552,5.8555,5.8558,0,0,0,0,0,0,0,0,0,0,0,0,0,5.829,5.8292,5.8434,5.8435,5.8436,5.8502,5.8503,5.8504,5.8492,5.8491,5.8489,5.8488,5.8551,5.8554,5.8558,0,0,0,0,0,0,0,0,0,0,0,0,0,5.8354,5.8293,5.8434,5.8438,5.8439,5.8502,5.8503,5.8504,5.8493,5.8491,5.8489,5.8487,5.855,5.8554,5.8558,5.8619,0,0,5.8571,5.8573,0,0,0,0,0,0,0,0,5.8351,5.836,5.8437,5.8438,5.8439,5.8487,5.8476,5.8543,5.8493,5.8472,5.8489,5.8487,5.8531,5.8537,5.8554,5.8622,5.8625,5.8571,5.8574,5.8576,5.8577,0,0,0,0,0,0,0,5.8346,5.8357,5.8461,5.8438,5.844,5.8435,5.8443,5.8488,5.8511,5.8474,5.8473,5.8482,5.8532,5.855,5.8555,5.8626,5.8571,5.8575,5.8578,5.8579,5.8751,5.8753,0,0,0,0,0,0,5.8341,5.8353,5.8459,5.8463,5.839,5.8439,5.8447,5.8473,5.851,5.8514,5.8483,5.8481,5.8543,5.855,5.8557,5.8633,5.8576,5.858,5.8582,5.8749,5.8751,5.8754,0,0,0,0,0,0,5.8338,5.8351,5.8456,5.8408,5.8421,5.8444,5.8473,5.8476,5.8494,5.8517,5.8521,5.8498,5.8542,5.8551,5.8605,5.8635,5.8581,5.8585,5.8746,5.875,5.8752,5.8784,0,0,0,0,0,0,5.8334,5.835,5.8374,5.8409,5.8424,5.8504,5.8475,5.8478,5.8502,5.8499,5.8532,5.8535,5.8541,5.8599,5.8609,5.864,5.8589,5.8744,5.8748,5.8751,5.8781,5.8788,5.8794,0,0,0,0,0,5.8329,5.8378,5.8375,5.8388,5.8455,5.8506,5.8515,5.8522,5.8504,5.8528,5.8544,5.8534,5.863,5.8604,5.8616,5.8648,5.8742,5.8747,5.8751,5.8777,5.8787,5.8794,0,0,0,0,0,0,5.8344,5.8383,5.838,5.8443,5.8472,5.8504,5.8535,5.8531,5.8564,5.8561,5.8567,5.8574,5.863,5.8644,5.8615,5.8711,5.8683,5.869,5.8699,5.8708,5.8715,5.871,5.8592,0,0,0,0,0,5.8355,5.8395,5.8426,5.8478,5.8493,5.8512,5.8534,5.8538,5.8567,5.8579,5.8598,5.8625,5.8662,5.8686,5.872,5.8783,5.879,5.8811,5.8817,5.8823,5.8829,5.8865,5.8875,5.8769,5.8769,5.8769,0,0,5.8377,5.8403,5.8427,5.8482,5.8505,5.8545,5.8522,5.8565,5.8595,5.8584,5.8638,5.8653,5.8684,5.8743,5.877,5.8757,5.886,5.8829,5.8833,5.8836,5.8871,5.8881,5.889,5.8772,5.8771,5.8771,0,0,5.8438,5.8462,5.851,5.8534,5.857,5.8583,5.8594,5.8628,5.8639,5.8693,5.8687,5.8721,5.8784,5.8807,5.8827,5.89,5.8893,5.8911,5.8947,5.8982,5.899,5.8998,5.9025,5.9035,5.8917,5.8917,5.8917,0,5.8461,5.8523,5.8533,5.8579,5.8603,5.8599,5.8647,5.8669,5.8713,5.873,5.8715,5.8795,5.8815,5.8881,5.8899,5.8915,5.8928,5.8907,5.8989,5.8996,5.9003,5.9029,5.904,5.8919,5.8919,5.8918,5.8918,0,5.855,5.8593,5.8627,5.8674,5.8702,5.8748,5.8764,5.8791,5.8793,5.8807,5.8862,5.8887,5.8928,5.8943,5.8944,5.901,5.9001,5.8987,5.896,5.9015,5.904,5.905,5.8922,5.8921,5.8921,5.892,0,0,5.8621,5.8676,5.8688,5.8711,5.8751,5.8784,5.883,5.8873,5.8896,5.8927,5.8966,5.902,5.9009,5.9032,5.9035,5.9066,5.9125,5.9049,5.905,5.9063,5.92,5.9211,5.9222,5.912,5.9122,5.9124,5.9198,0,5.8688,5.8772,5.8784,5.8857,5.8898,5.8896,5.8936,5.8965,5.8979,5.9015,5.903,5.9069,5.905,5.9065,5.9095,5.9111,5.9152,5.9106,5.9156,5.9158,5.9149,5.9235,5.9246,5.9315,5.9207,5.9209,5.921,0,5.8777,5.8814,5.8893,5.8931,5.8949,5.8985,5.9026,5.906,5.9093,5.9101,5.9128,5.9129,5.9176,5.9147,5.9212,5.918,5.9201,5.9212,5.9215,5.922,5.9188,5.9244,5.9337,5.9347,5.9225,5.9224,5.9223,0,5.8823,5.8893,5.895,5.8969,5.9014,5.904,5.9059,5.9091,5.9116,5.9151,5.9168,5.9207,5.9229,5.9259,5.927,5.9247,5.9334,5.9306,5.9342,5.9342,5.9361,5.936,5.946,5.9373,5.9373,5.9373,5.9373,0,5.8897,5.8946,5.8972,5.9007,5.9062,5.9074,5.9127,5.9145,5.9174,5.9212,5.921,5.9246,5.9258,5.9294,5.9303,5.9356,5.9365,5.9373,5.9375,5.9374,5.9373,5.9388,5.9384,5.9376,5.9375,5.9374,5.9374,0,5.8958,5.8978,5.904,5.9079,5.909,5.9129,5.9161,5.9195,5.9209,5.9257,5.9269,5.9292,5.9336,5.935,5.9401,5.9407,5.947,5.9467,5.946,5.946,5.9497,5.9494,5.9611,5.9627,5.9529,5.9529,5.953,0,5.9005,5.9043,5.9087,5.9114,5.9135,5.9178,5.9205,5.9219,5.9247,5.9289,5.9317,5.9361,5.9397,5.9467,5.9487,5.9527,5.9525,5.9564,5.9531,5.953,5.9528,5.9526,5.953,5.957,5.9571,5.9572,5.9572,0,5.9086,5.9094,5.9135,5.918,5.9213,5.9248,5.9282,5.9303,5.9322,5.9353,5.94,5.9428,5.9483,5.9527,5.9568,5.9586,5.9583,5.9583,5.9593,5.9593,5.9588,5.9593,5.9478,5.958,5.9579,5.9578,5.9578,5.9578,5.9142,5.9176,5.9214,5.926,5.9288,5.932,5.9354,5.9375,5.9415,5.9462,5.9467,5.9518,5.955,5.9606,5.9627,5.9665,5.9654,5.9669,5.9673,5.9677,5.9681,5.9582,5.9672,5.9672,5.9672,5.9672,5.9672,0,5.9224,5.9249,5.9291,5.9341,5.9377,5.9373,5.941,5.944,5.9486,5.9518,5.9554,5.9608,5.9651,5.9676,5.9719,5.9745,5.9744,5.9756,5.9754,5.9759,5.9688,5.9675,5.9756,5.9756,5.9756,5.9756,5.9756,5.9756,5.9271,5.9331,5.9344,5.9417,5.9441,5.9492,5.9515,5.9544,5.957,5.9632,5.9669,5.9685,5.9714,5.976,5.9799,5.9805,5.9821,5.9834,5.9839,5.9772,5.9764,5.9755,5.9743,5.9837,5.9837,5.9907,5.9908,5.9908]}]]